Regional Weather Roundup
Issued by NWS

Home | Current Version | Previous Version | Graphics & Text | Print | Product List | Glossary On
Versions: 1 2 3 4 5 6 7 8 9 10 11 12 13 14 15 16 17 18 19 20 21 22 23 24 25 26 27 28 29 30 31 32 33 34 35 36 37 38 39 40 41 42 43 44 45 46 47 48 49 50
000
ASUS45 KABQ 221410
RWRNM
WEATHER ROUNDUP FOR NEW MEXICO
NATIONAL WEATHER SERVICE ALBUQUERQUE NM
800 AM MDT MON SEP 22 2014

NOTE: "FAIR" MEANS FEW OR NO CLOUDS BELOW 12,000 FEET AGL WITH NO
       SIGNIFICANT WEATHER OR OBSTRUCTIONS TO VISION.

      THIS PRODUCT IS RELEASED AS TWO VERSIONS.  ONE VERSION NEAR
      THE TOP OF THE HOUR CONTAINING PRELIMINARY DATA FROM ALBUQUERQUE
      AND OTHER STATIONS.  A FINAL VERSION WITH ADDITIONAL DATA IS
      ISSUED ABOUT 10 MINUTES AFTER THE HOUR.

NMZ501-503-504-510>518-221500-
NORTHWEST PLATEAU/NORTHCENTRAL MOUNTAINS

CITY           SKY/WX    TMP DP  RH WIND       PRES   REMARKS
FARMINGTON     LGT RAIN  63  57  81 E7        30.27R
LOS ALAMOS     DRIZZLE   56  56 100 S6        30.43R
SANTA FE       CLOUDY    61  55  81 S12       30.38R
TAOS           CLOUDY    57  50  77 CALM      30.42S
ANGEL FIRE     CLOUDY    54  50  86 S3        30.48S

$$
NMZ402-403-502-505>509-221500-
WESTCENTRAL MOUNTAINS/SOUTHWEST MOUNTAINS

CITY           SKY/WX    TMP DP  RH WIND       PRES   REMARKS
GALLUP         CLOUDY    59  55  87 SE3       30.33S
GRANTS         CLOUDY    57  55  94 S7        30.38R
SILVER CITY    CLOUDY    64  63  94 SE5       30.30R

$$
NMZ407-409-411-412-221500-
SOUTHERN DESERTS

CITY           SKY/WX    TMP DP  RH WIND       PRES   REMARKS
LORDSBURG      FAIR      66  63  88 MISG      30.20R
DEMING         CLOUDY    68  65  90 E7        30.22R
LAS CRUCES     CLOUDY    67  65  91 CALM      30.25R
HOLLOMAN AFB   CLOUDY    67  64  89 N3        30.22R
ALAMOGORDO     CLOUDY    68  63  83 NW7       30.24S
T OR C         CLOUDY    67  61  81 NE3       30.26R

$$
NMZ519>523-221500-
CENTRAL VALLEYS/CENTRAL HIGHLANDS

CITY           SKY/WX    TMP DP  RH WIND       PRES   REMARKS
ALBUQUERQUE    PTSUNNY   67  55  65 CALM      30.32R
DOUBLE EAGLE   CLOUDY    63  55  77 CALM      30.34S
MORIARTY ARPT  LGT RAIN  59  56  89 SE7       30.39R
CLINES CORNERS CLOUDY    56  55  97 S14       30.41R
BELEN          CLOUDY    65  59  81 CALM      30.31R
SOCORRO        CLOUDY    65  61  86 CALM      30.29R

$$
NMZ524>526-539-540-221500-
SOUTHCENTRAL MOUNTAINS

CITY           SKY/WX    TMP DP  RH WIND       PRES   REMARKS
RUIDOSO        NOT AVBL

$$
NMZ527>531-221500-
NORTHEAST HIGHLANDS/NORTHEAST PLAINS

CITY           SKY/WX    TMP DP  RH WIND       PRES   REMARKS
LAS VEGAS      LGT RAIN  57  56  96 S15       30.41S FOG
RATON          CLOUDY    59  58  96 S13       30.37S
CLAYTON        CLOUDY    60  53  77 S14       30.35R

$$
NMZ532>537-221500-
EASTCENTRAL PLAINS

CITY           SKY/WX    TMP DP  RH WIND       PRES   REMARKS
TUCUMCARI      CLOUDY    64  60  87 E7        30.31R
CANNON AFB     FOG       61  61 100 SE10      30.33R VSB 5/8
CLOVIS AIRPORT   N/A     61  59  94 E15       30.35S VSB 1/2

$$
NMZ028-029-538-221500-
SOUTHEAST PLAINS

CITY           SKY/WX    TMP DP  RH WIND       PRES   REMARKS
ROSWELL        CLOUDY    67  65  93 E6        30.26R
CARLSBAD       LGT RAIN  68  32  26 SE9       30.23R
HOBBS          CLOUDY    66  66 100 E12       30.28R FOG


$$


USA.gov is the U.S. government's official web portal to all federal, state and local government web resources and services.